Theta_e
319 318 318 318 317 318 318 319 319 319 318 318 317 317 316 316 317 317 317 316 315 314 313 312 311 310 308 308 308 308 309 308 307 306 303 301 299 297 296 295 294 293 293 292 292 292 292 293 293 293 293 293 293 293 293 293 293 293 293 293 293 293 293 293 293 292 292 292 292 292 292 292 292 292 292 291 291 291 291 291 291 291 291 292 292 292
318 318 317 318 318 317 318 318 318 318 317 317 316 316 315 315 315 315 314 314 313 312 311 310 309 308 307 308 309 309 308 306 303 301 299 297 296 295 294 294 293 293 292 292 292 292 292 292 293 293 293 293 293 293 293 293 293 293 293 293 293 293 293 293 293 292 292 292 292 292 292 292 291 291 291 291 291 291 291 291 291 291 291 291 292 292
319 318 318 318 318 318 318 318 318 318 317 316 315 315 314 314 313 313 312 312 311 310 309 308 307 307 308 309 308 307 304 301 298 297 295 295 294 294 293 293 292 292 292 292 292 292 292 292 293 293 293 293 293 293 293 293 293 293 293 293 293 293 293 293 293 292 292 292 292 291 291 291 291 291 291 291 291 291 291 291 291 291 291 291 291 292
319 318 318 318 318 318 317 317 317 317 316 315 314 314 313 313 312 311 311 310 308 307 307 307 308 309 309 307 305 302 299 297 295 294 293 293 293 293 292 292 292 292 292 292 292 292 292 292 293 293 293 293 293 293 293 293 293 293 293 293 293 293 293 293 292 292 292 292 291 291 291 291 291 291 291 291 290 291 291 291 291 291 291 291 291 292
318 318 317 317 317 317 316 316 316 315 314 314 313 313 312 311 311 309 308 307 306 306 306 307 308 308 306 303 300 297 295 294 293 293 292 292 292 292 292 292 292 292 292 292 292 292 292 292 292 293 293 293 293 293 293 293 293 293 293 293 293 293 292 292 292 292 291 291 291 291 291 291 291 290 290 290 290 290 290 290 291 291 291 291 291 291
317 316 316 315 315 315 314 314 314 313 313 312 312 311 310 309 308 306 305 305 305 306 307 307 306 304 301 298 296 294 293 292 292 292 292 292 292 292 292 292 292 292 292 292 292 292 292 292 292 292 292 293 293 293 293 293 293 293 293 293 292 292 292 292 292 291 291 291 291 291 291 290 290 290 290 290 290 290 290 290 290 290 290 291 291 291
315 315 314 313 313 312 312 312 311 311 310 309 308 307 306 305 304 304 303 304 305 306 306 304 302 299 296 294 293 292 291 291 291 291 291 291 291 291 291 292 292 292 292 292 292 292 292 292 292 292 292 292 292 292 292 292 292 292 292 292 292 292 292 292 291 291 291 291 291 290 290 290 290 290 290 290 290 290 290 290 290 290 290 290 291 291
312 312 312 311 311 310 310 309 308 307 306 305 304 303 303 302 303 303 304 305 305 305 304 301 298 295 293 292 291 291 291 291 291 291 291 291 291 291 291 291 292 292 292 292 292 292 292 292 292 292 292 292 292 292 292 292 292 292 292 292 292 292 291 291 291 291 291 291 290 290 290 290 290 290 290 290 290 290 290 290 290 290 290 290 290 290
308 308 307 307 307 306 305 304 303 303 302 301 301 301 301 302 303 304 304 304 303 302 300 297 295 293 292 291 291 291 291 291 291 291 291 291 291 291 291 292 292 292 292 292 292 292 292 292 292 292 292 292 292 292 292 292 292 292 292 292 292 291 291 291 291 291 291 290 290 290 290 290 290 290 290 290 290 290 290 290 290 290 290 290 290 290
304 303 302 302 301 301 301 300 300 300 300 300 300 301 302 303 304 304 304 301 299 297 295 293 292 291 291 291 291 291 291 291 291 291 291 291 291 291 292 292 292 292 292 292 292 292 292 291 291 291 291 292 292 292 292 292 292 292 292 292 291 291 291 291 291 291 290 290 290 290 290 290 290 290 290 290 290 290 290 290 290 290 290 290 290 290
302 301 300 299 299 299 300 300 300 300 301 302 302 303 303 303 301 299 297 295 293 292 291 291 291 291 291 291 291 291 291 291 291 291 291 291 291 291 291 291 292 292 292 291 291 291 291 291 291 291 291 291 291 291 291 291 291 291 291 291 291 291 291 291 290 290 290 290 290 290 290 290 290 290 290 290 290 290 290 290 290 290 290 290 290 290
303 302 302 301 301 301 302 303 303 303 303 303 303 302 300 297 295 292 291 291 291 291 291 291 291 291 291 291 292 292 292 292 292 292 292 291 291 292 292 291 291 291 291 291 291 291 291 291 291 291 291 291 291 291 291 291 291 291 291 291 291 290 290 290 290 290 290 290 290 290 290 290 290 290 289 289 289 289 289 289 289 289 289 289 289 289
304 304 304 303 303 304 304 304 303 303 301 300 297 294 292 290 290 289 290 290 290 290 291 291 291 291 291 291 292 292 292 292 292 292 292 292 292 292 292 292 292 291 291 291 291 291 291 291 291 290 290 290 290 290 290 290 291 290 290 290 290 290 290 290 290 290 290 290 290 289 289 289 289 289 289 289 289 289 289 289 289 289 289 289 289 289
304 304 304 304 303 302 301 299 297 295 294 292 291 289 289 289 289 289 290 290 290 290 291 291 291 291 291 292 292 292 292 292 292 292 292 292 292 292 292 292 292 292 292 292 291 291 291 291 291 291 290 290 290 290 290 290 290 290 290 290 290 290 290 290 290 290 289 289 289 289 289 289 289 289 289 289 289 289 289 289 289 289 289 289 289 289
303 302 301 299 298 296 295 293 291 290 289 289 289 289 289 289 289 290 290 290 290 291 291 291 292 291 291 292 292 292 292 292 292 292 293 293 292 292 292 292 292 292 292 292 292 291 291 291 291 291 291 291 290 290 290 290 290 290 290 290 290 290 290 290 290 289 289 289 289 289 289 289 289 289 289 289 289 289 289 289 289 289 289 289 289 289
298 297 295 294 292 291 290 290 289 288 288 288 289 289 289 289 289 290 290 290 291 291 291 291 292 292 292 291 291 292 292 292 292 292 293 293 292 292 292 292 292 292 292 292 292 292 291 291 291 291 291 291 291 291 291 291 291 291 291 290 290 290 290 290 289 289 289 289 289 289 289 289 289 289 289 289 289 289 289 289 289 289 289 289 289 289
293 292 291 290 289 289 289 288 288 288 289 289 289 289 290 290 290 290 290 290 291 291 291 291 291 292 292 292 291 291 292 291 291 291 292 292 292 292 292 292 292 292 292 292 292 292 292 292 292 292 292 292 292 292 292 292 291 291 291 291 290 290 290 289 289 289 289 289 289 289 289 289 289 288 288 288 289 289 289 289 289 289 289 289 289 289
290 289 289 289 288 288 288 289 289 289 289 289 289 289 289 290 290 290 290 290 290 291 291 291 291 291 292 292 291 290 291 291 291 290 291 292 292 292 292 292 292 292 292 292 292 292 292 292 292 292 292 292 292 292 292 292 292 291 291 291 290 290 289 289 289 289 289 289 289 289 289 289 289 289 289 289 289 289 289 289 289 289 289 289 289 288
288 288 288 288 288 289 289 289 289 289 289 289 289 289 289 290 290 290 290 290 290 290 290 291 291 291 291 292 291 290 290 290 290 290 290 291 292 292 292 292 292 292 293 293 293 292 292 292 292 292 292 292 292 292 292 292 291 291 290 290 290 289 289 289 289 289 289 289 289 289 289 289 289 289 289 289 289 289 289 289 289 289 289 289 288 288
288 288 289 289 289 289 289 289 289 289 289 289 289 289 290 290 290 290 290 290 290 290 290 291 291 291 291 291 291 290 290 290 289 289 290 291 292 292 292 292 292 292 293 293 293 292 292 292 292 293 293 292 292 292 291 291 290 290 290 290 290 290 290 290 290 290 289 289 289 289 289 289 289 289 289 289 289 289 289 289 289 289 289 288 288 288
289 289 289 289 289 289 289 289 289 289 289 289 289 289 290 290 290 290 290 290 290 290 290 291 291 290 290 291 290 290 289 289 289 289 290 291 292 292 292 292 292 292 293 293 293 293 293 293 293 292 292 292 291 291 291 290 290 290 290 290 290 290 290 290 290 290 290 290 290 289 289 289 289 289 289 289 289 289 289 289 289 289 288 288 288 288
289 289 289 289 289 289 289 289 289 289 289 289 289 290 290 290 290 290 290 290 290 290 290 290 290 290 290 290 290 289 289 289 289 289 290 291 292 292 291 292 292 292 293 293 293 293 293 293 292 292 292 291 291 291 290 290 290 290 290 290 290 290 290 290 290 290 290 289 289 289 289 289 289 289 289 289 289 289 289 289 289 288 288 288 288 288
289 289 289 289 289 289 289 289 289 289 289 289 289 290 290 290 290 290 290 290 290 290 290 290 290 290 290 290 289 289 288 288 289 289 290 291 292 292 291 291 292 292 293 293 293 293 293 293 292 292 292 291 291 291 291 291 291 291 291 290 290 290 290 290 290 289 289 289 289 289 289 289 289 289 289 289 289 289 289 289 288 288 288 288 288 288
289 289 289 289 289 289 289 289 289 289 289 289 290 290 290 290 290 290 290 290 290 290 290 290 290 290 290 289 289 289 288 288 289 289 290 290 291 292 292 291 291 292 293 293 293 293 293 293 292 292 292 292 292 291 291 291 291 291 291 290 290 290 290 289 289 289 289 289 289 289 289 289 289 289 289 289 289 289 289 288 288 288 288 288 288 288
288 288 288 288 289 289 289 289 289 289 289 289 290 290 290 290 290 290 290 290 290 290 289 290 290 290 290 290 290 289 289 289 289 290 290 290 291 292 291 291 291 292 292 293 293 293 293 293 293 292 292 292 292 292 292 291 291 291 290 290 290 290 289 289 289 289 289 289 289 289 289 289 289 289 289 289 289 288 288 288 288 288 288 288 288 288
288 288 288 288 289 289 289 289 289 289 289 289 290 290 290 290 290 290 290 290 289 289 289 289 290 290 290 290 290 290 289 289 290 290 290 290 291 292 291 291 291 291 292 293 293 293 293 293 293 293 292 292 292 292 292 291 291 291 291 290 290 290 290 290 290 290 290 290 290 290 289 289 289 289 289 289 288 288 288 288 288 288 288 288 288 288
288 288 288 288 289 289 289 289 289 289 289 289 289 290 290 290 289 289 289 289 289 289 289 289 290 290 290 291 290 290 289 289 290 290 290 290 290 291 291 291 290 291 292 292 293 293 292 292 292 293 293 292 292 292 292 291 291 291 291 291 290 290 290 290 290 290 290 290 290 289 289 289 289 289 289 288 288 288 288 288 288 288 288 288 288 288
288 288 288 288 288 288 288 289 289 289 289 289 289 289 289 289 289 289 289 289 289 289 289 289 290 290 290 291 291 290 289 289 289 290 290 290 290 290 290 290 290 290 291 292 292 292 292 292 292 292 292 292 292 292 292 291 291 291 291 291 291 290 290 290 290 290 290 290 290 289 289 289 289 289 289 289 288 288 288 288 288 288 288 288 288 288
288 288 288 288 288 288 288 288 289 289 289 289 289 289 289 289 289 289 289 289 289 289 289 289 289 290 290 291 291 290 289 289 289 289 289 289 290 290 290 290 290 290 290 290 291 292 291 291 291 291 291 292 292 292 292 291 291 291 291 291 291 291 290 290 290 290 290 290 289 289 289 289 289 289 289 289 289 289 289 288 288 288 288 288 288 288
288 288 288 288 288 288 288 289 289 289 289 289 289 289 289 289 289 289 290 290 290 289 289 289 290 290 290 290 290 291 290 288 288 288 289 289 289 290 290 290 289 289 289 289 289 290 290 290 290 290 290 291 291 291 291 291 291 291 291 291 291 291 290 290 290 290 290 290 289 289 289 289 289 289 289 289 289 289 289 289 288 288 288 288 288 288
287 287 287 288 288 288 289 289 289 289 289 289 289 289 289 290 290 290 290 290 290 290 289 289 289 289 290 289 290 290 290 288 288 288 288 288 289 289 289 289 289 289 288 287 286 286 287 289 289 289 289 289 290 291 291 291 291 291 291 291 291 291 290 290 290 290 290 290 290 289 289 289 289 289 289 289 289 289 289 289 289 288 288 288 288 287
287 287 287 288 288 288 289 289 289 289 289 290 290 290 290 290 290 290 290 290 290 289 289 289 289 289 289 289 289 289 289 288 288 288 288 288 288 288 288 288 288 288 287 286 285 284 284 286 288 289 288 288 289 289 290 290 290 290 290 290 290 290 290 289 289 289 290 290 290 289 289 289 289 289 289 289 289 289 289 289 289 288 288 287 287 287
287 287 288 288 288 289 289 289 289 290 290 290 290 290 290 290 290 290 290 290 290 289 289 289 289 289 289 289 289 289 289 288 287 287 287 287 287 288 288 288 288 287 287 286 285 284 284 284 285 287 287 287 287 288 289 289 289 289 289 289 290 290 289 289 289 289 289 289 289 289 289 289 289 289 290 290 290 290 289 289 289 288 287 287 287 287
287 288 288 288 289 289 289 289 290 290 290 290 290 290 290 290 290 290 289 289 289 289 289 289 289 289 289 289 289 289 289 288 287 287 287 287 287 287 287 287 287 287 286 286 285 285 284 284 284 284 285 286 287 287 288 288 288 288 288 288 289 289 289 289 289 289 289 289 289 289 289 289 289 290 290 290 290 290 290 289 289 288 288 287 287 287
288 288 288 289 289 289 289 290 290 290 290 290 290 290 290 289 289 289 289 289 289 289 289 289 289 289 288 288 288 289 289 288 287 287 287 286 286 287 287 287 287 286 286 285 284 284 284 284 284 283 284 285 286 287 287 287 287 288 288 288 288 288 289 288 288 288 288 288 289 289 289 289 289 289 289 290 290 290 290 289 289 289 288 288 288 287
288 288 289 289 289 289 289 290 290 290 290 290 290 290 289 289 289 289 289 289 289 289 289 288 288 288 288 288 288 288 288 288 287 287 286 286 286 286 286 287 287 286 285 285 284 284 283 284 284 284 284 284 285 286 287 287 287 287 288 288 288 288 288 288 288 288 288 288 288 288 288 288 289 289 289 289 289 289 289 289 289 289 289 289 288 288
288 289 289 289 289 289 289 289 289 289 289 289 289 289 289 289 289 289 289 289 289 288 288 288 288 288 288 288 288 288 288 288 287 287 287 286 286 286 286 286 286 286 285 285 285 284 283 284 284 284 284 284 284 285 286 287 287 287 287 288 288 288 288 288 287 287 287 287 288 288 288 288 288 288 289 289 289 289 289 289 289 289 289 289 288 288
288 289 289 289 289 289 289 289 290 290 289 289 289 289 289 289 289 289 289 288 288 288 288 288 288 288 288 287 287 287 287 287 287 287 287 286 286 285 286 286 286 286 285 285 284 284 283 284 284 284 284 284 284 285 285 286 286 286 287 287 288 288 288 287 287 287 287 287 287 287 287 287 287 288 288 288 289 289 289 289 289 289 288 288 289 289
288 289 289 289 289 289 290 290 290 290 290 289 289 289 289 289 289 289 288 288 288 288 288 288 288 288 287 287 287 287 287 287 287 287 287 287 286 286 286 286 286 286 286 285 284 284 283 283 283 283 283 284 284 285 285 285 285 285 286 287 287 288 288 287 287 287 287 287 287 287 287 287 287 287 287 288 288 288 288 288 288 288 288 288 288 288
288 288 289 289 289 289 289 290 290 290 289 289 289 289 289 289 288 288 288 288 288 288 288 288 288 288 287 287 287 287 287 287 287 287 287 287 287 286 286 286 286 286 286 286 285 284 283 284 284 283 283 283 284 284 285 285 286 285 285 286 286 287 288 288 287 287 287 286 286 286 286 286 286 286 286 286 287 286 287 287 287 287 287 286 286 287
288 289 289 289 289 289 289 290 289 289 289 289 289 289 288 288 288 288 288 288 287 288 288 288 288 288 287 287 287 287 287 287 287 287 287 287 287 287 286 285 285 285 286 285 285 284 284 284 284 284 284 283 283 284 284 285 286 285 285 285 285 286 287 287 287 287 287 286 286 286 285 285 285 286 286 286 286 286 286 286 286 286 286 285 285 285
288 288 289 289 289 289 289 289 289 289 289 289 288 288 288 288 288 288 288 288 288 288 288 288 288 288 288 288 288 288 288 288 288 288 288 287 287 287 286 286 285 284 285 285 285 285 284 284 284 284 284 284 284 284 285 286 286 286 285 285 285 286 287 287 287 287 286 286 286 286 285 285 285 285 285 286 286 287 287 286 286 286 285 285 285 285
288 288 289 289 289 289 289 289 289 289 288 288 288 288 288 288 288 289 289 289 289 289 289 289 289 289 289 289 289 289 288 288 288 288 288 288 287 287 287 286 285 285 284 285 285 285 285 285 284 284 284 284 284 284 284 285 286 286 286 285 285 285 285 287 287 287 286 286 286 285 285 285 285 285 285 285 286 286 287 286 286 286 285 285 285 285
288 288 288 289 289 289 289 289 288 288 288 288 288 288 288 288 289 289 289 289 289 289 289 289 289 290 290 290 290 290 289 289 288 288 288 288 287 287 287 286 286 285 284 285 285 285 285 285 285 285 285 284 284 284 285 285 286 286 286 286 285 285 285 286 286 286 286 286 286 285 285 284 284 284 285 285 286 286 286 286 286 286 285 285 285 284
288 288 288 289 289 289 288 288 288 288 288 288 288 288 288 288 289 289 289 289 289 289 289 290 290 290 290 290 290 290 290 289 289 288 288 288 288 287 287 287 286 286 285 285 285 285 285 285 285 286 286 285 285 285 285 286 286 286 286 286 286 285 285 286 286 286 285 285 286 285 285 284 284 284 284 285 285 286 286 286 285 285 285 285 285 284
288 288 288 288 288 288 288 288 288 288 288 288 288 288 288 288 289 289 289 290 290 290 290 290 290 290 290 289 289 289 289 289 289 289 288 288 288 287 287 287 287 286 286 286 286 286 285 285 285 285 285 285 286 286 286 286 286 286 286 286 286 285 286 286 286 286 285 285 285 285 285 284 284 284 283 284 284 285 285 285 285 285 284 284 284 284
288 288 288 288 288 288 288 288 288 288 288 288 288 288 288 289 289 289 289 289 290 290 290 290 290 289 289 289 288 288 288 288 288 288 288 288 288 288 287 287 287 287 287 287 286 286 286 286 285 285 285 285 286 286 287 286 286 286 286 286 286 285 286 286 286 286 286 285 285 285 284 284 283 283 283 283 283 283 284 284 284 284 284 284 283 283
288 288 288 288 288 288 288 288 288 288 288 288 288 288 288 288 289 289 289 289 289 289 290 290 289 289 289 288 288 287 287 287 287 287 287 287 288 288 288 287 287 287 287 287 287 286 286 286 286 286 285 285 286 286 287 287 286 286 286 285 285 285 286 286 286 286 286 285 285 284 284 283 283 283 283 283 283 283 283 283 284 284 283 283 283 283
287 287 287 287 287 287 287 287 288 288 288 288 288 288 288 289 289 289 289 289 289 289 289 289 289 289 289 288 288 288 287 287 287 287 286 286 286 287 287 287 287 287 287 288 287 287 286 286 286 286 286 286 286 286 286 286 286 286 286 286 285 285 286 286 286 286 285 285 284 284 284 283 283 283 283 283 283 283 283 283 283 283 283 283 283 283
287 287 287 287 287 287 287 287 288 288 288 288 289 289 288 288 289 289 289 289 289 289 289 288 288 288 288 288 288 287 287 287 286 286 286 285 285 285 285 285 285 286 287 287 288 287 287 287 287 287 286 286 285 285 285 286 286 286 286 286 286 286 285 285 285 285 285 284 284 284 284 283 283 283 283 283 283 283 283 283 283 283 283 283 283 282
287 287 287 287 287 287 287 287 288 288 288 288 288 288 288 288 288 288 289 289 289 289 289 288 288 288 288 288 287 287 287 286 286 286 286 285 285 285 284 284 284 284 285 286 286 286 286 286 286 286 287 286 285 285 285 285 285 286 286 286 286 286 285 285 285 285 284 284 284 283 283 283 283 283 283 283 282 282 282 283 283 283 283 283 282 282
Wind_Speed
26 27 28 28 28 27 27 27 26 27 27 27 27 28 27 26 26 26 26 27 27 28 28 28 29 29 30 32 33 35 36 37 38 39 39 39 39 39 39 38 37 36 35 34 34 33 33 32 32 32 32 32 32 32 32 33 33 33 33 33 33 33 32 32 32 32 32 32 32 32 32 32 32 32 31 31 30 30 29 29 29 29 28 28 28 28
26 27 28 28 28 27 27 27 27 27 28 27 27 26 26 25 25 25 26 26 27 27 27 28 29 30 31 33 35 36 37 37 38 38 38 38 38 38 37 36 36 35 34 34 33 33 33 33 33 33 33 33 33 33 33 33 33 33 33 33 33 33 32 32 32 32 32 32 32 32 32 32 31 31 31 30 30 30 29 29 29 29 28 28 28 28
26 27 27 28 28 28 28 28 28 28 28 27 26 26 25 24 25 25 26 26 27 27 28 28 30 31 33 34 35 36 36 37 37 37 37 37 37 36 36 35 34 33 33 33 33 33 33 33 33 33 33 33 33 33 33 33 33 33 33 33 33 32 32 32 32 32 32 32 32 32 31 31 31 30 30 30 30 30 29 29 29 29 29 29 28 28
25 26 27 27 27 27 27 27 28 28 27 27 26 26 25 25 25 25 26 26 27 27 28 30 31 33 34 35 35 35 36 36 36 35 35 35 34 34 34 33 33 33 33 33 33 33 33 34 34 34 34 33 33 33 33 33 33 33 33 33 32 32 32 32 32 32 32 31 31 31 31 31 30 30 30 30 30 30 30 29 29 29 29 29 29 28
23 24 25 25 25 25 26 25 26 26 26 26 26 25 25 25 25 25 26 26 27 28 30 31 32 33 34 34 34 34 34 34 34 33 33 33 32 32 32 32 32 32 33 33 33 34 34 34 34 34 34 33 33 33 33 33 33 33 32 32 32 32 32 32 32 31 31 31 31 31 31 30 30 30 30 30 30 30 30 30 30 30 30 30 30 29
19 20 21 21 22 23 23 23 24 24 24 24 24 24 24 24 25 25 26 27 28 29 31 32 32 32 33 33 33 33 33 32 31 31 31 30 31 31 31 31 32 32 33 33 33 33 34 34 34 34 33 33 33 33 33 32 32 32 32 32 32 32 32 32 31 31 31 31 31 31 30 30 30 30 30 30 30 30 30 30 30 31 31 31 31 31
16 17 18 18 19 21 22 22 22 22 22 22 22 23 23 24 25 26 27 28 29 30 31 32 31 31 31 31 31 31 30 30 29 29 29 29 29 30 30 31 32 32 32 33 33 33 33 33 33 33 33 32 32 32 32 32 32 32 32 32 32 31 31 31 31 31 31 31 31 30 30 30 30 30 30 30 30 30 31 31 31 31 32 32 32 31
14 16 17 17 18 19 20 21 21 21 21 21 21 22 23 25 26 27 28 29 30 31 31 31 30 29 28 29 29 29 28 28 27 28 28 28 29 29 30 30 31 31 31 31 31 31 32 32 32 32 32 31 31 31 31 31 31 31 31 31 31 31 31 31 31 31 31 30 30 30 30 30 30 30 30 30 31 31 32 32 32 32 32 32 32 32
14 14 15 16 17 17 18 19 19 19 20 20 21 22 24 26 27 29 29 30 30 30 30 29 28 26 25 25 26 27 27 27 27 27 27 28 28 29 29 30 30 30 30 30 30 30 30 30 30 30 30 30 30 30 30 30 31 30 30 30 30 30 30 30 30 30 30 30 30 30 30 30 30 30 30 31 31 32 32 33 33 33 33 33 33 32
13 13 14 15 15 16 16 18 19 20 21 22 23 24 26 27 29 29 29 28 28 27 27 26 25 23 23 23 24 25 26 27 27 27 27 27 28 28 28 28 28 28 28 28 28 28 28 29 29 29 29 29 29 29 30 30 30 30 30 30 30 30 30 30 30 30 30 30 30 30 30 30 30 30 31 31 32 33 33 33 34 34 34 33 33 33
13 13 13 14 16 17 18 19 21 22 23 25 26 27 28 28 28 28 27 25 24 23 23 23 22 21 22 22 23 24 25 26 26 26 26 25 26 26 26 26 26 26 26 26 26 26 26 27 27 27 28 28 28 28 29 29 29 29 29 29 29 29 29 29 29 29 29 29 29 30 30 30 30 31 31 32 32 33 33 34 34 34 34 33 33 33
14 14 15 16 17 19 20 22 24 25 26 26 27 27 27 26 25 23 23 22 21 21 21 21 21 20 21 22 24 24 25 25 26 25 25 24 23 23 24 24 24 23 23 23 23 23 24 25 25 26 26 26 27 27 27 28 28 28 28 28 28 29 29 29 29 29 29 29 30 30 30 30 31 31 32 32 32 33 33 33 33 33 33 33 33 33
16 17 18 19 20 21 22 24 25 25 25 24 23 22 22 21 20 20 21 21 21 20 20 21 20 20 20 22 24 25 26 26 25 24 23 22 21 22 22 23 22 21 21 21 21 21 22 23 23 24 24 24 25 25 26 27 27 27 27 28 28 28 28 29 29 29 29 29 30 30 30 31 31 31 32 32 32 33 33 33 33 33 33 34 34 34
18 18 19 20 21 21 22 22 22 21 21 20 19 19 19 18 18 19 19 20 20 20 20 21 21 21 21 22 23 25 26 26 25 23 21 20 20 20 22 22 22 21 20 20 21 20 20 21 22 22 22 22 23 24 25 25 26 26 27 27 27 28 28 28 28 29 29 29 29 30 30 30 31 31 31 32 32 32 33 33 33 34 34 34 34 35
17 18 18 19 19 19 19 19 18 17 17 16 16 16 17 17 17 18 19 20 21 21 21 21 21 21 21 21 22 23 25 25 25 23 21 19 18 19 21 22 22 21 19 20 20 20 20 20 21 21 21 21 22 23 24 24 25 25 26 26 26 27 27 27 27 28 28 28 28 29 29 29 30 30 31 31 32 32 33 33 34 34 35 35 36 36
16 16 16 16 16 16 16 15 15 14 14 14 14 15 15 16 17 18 19 20 21 22 22 22 22 21 20 19 19 21 23 25 26 24 22 19 18 19 20 22 23 21 19 19 19 19 19 19 19 20 21 21 21 22 23 23 24 24 24 25 25 25 25 25 26 26 26 26 27 27 28 29 29 30 31 31 32 32 33 34 34 35 36 36 37 37
14 14 14 13 13 13 13 13 13 13 13 13 13 14 15 16 18 19 20 21 22 22 22 22 22 21 20 18 18 19 22 25 27 26 24 21 19 19 20 22 23 21 19 18 18 18 18 18 18 19 20 20 21 21 22 22 23 23 23 23 23 23 23 23 23 24 24 25 25 26 27 28 29 30 31 31 32 33 34 35 35 36 37 37 38 38
11 11 11 11 10 10 10 10 11 12 12 12 13 14 15 16 18 19 20 21 21 21 21 21 20 21 21 20 19 19 21 24 27 27 25 22 20 19 20 21 22 21 19 17 17 17 17 17 17 18 19 20 20 20 20 21 21 20 20 20 20 20 20 21 22 22 23 24 25 26 27 28 29 30 31 32 33 34 34 35 36 36 37 37 37 38
8 8 8 8 9 9 9 9 10 11 12 12 13 14 15 16 18 19 20 20 20 20 21 20 20 20 20 20 19 19 20 23 25 27 26 24 21 20 20 21 21 20 18 17 16 16 16 16 17 17 18 18 18 18 17 17 17 17 17 17 17 18 19 20 21 22 23 25 26 27 28 29 30 30 31 32 33 34 34 35 35 36 36 36 36 36
6 6 6 7 8 8 9 9 10 11 12 13 14 15 16 17 18 18 19 20 20 20 20 20 20 20 19 19 19 19 20 22 24 26 26 24 22 20 20 21 21 20 18 17 16 17 17 17 16 16 16 16 15 14 14 13 13 14 15 16 17 18 19 20 21 23 24 25 26 26 27 28 29 30 31 31 32 33 33 34 34 34 34 34 35 35
4 4 5 6 7 8 8 9 10 12 13 14 15 15 16 17 18 18 19 19 19 19 19 19 19 19 19 20 20 20 20 22 24 25 25 24 22 21 21 22 22 21 19 17 17 17 17 17 17 16 15 13 12 11 11 11 12 13 14 16 17 18 19 20 21 22 23 24 24 25 26 27 28 28 29 30 31 31 32 32 32 33 33 33 33 33
4 4 5 6 7 8 9 10 11 12 14 15 16 16 16 17 18 18 18 18 19 19 19 19 19 19 19 19 20 20 20 21 22 24 25 24 23 21 21 22 22 21 20 19 18 18 18 18 17 15 13 12 11 10 11 12 13 14 15 16 17 17 18 19 19 20 21 22 23 23 24 25 26 27 28 28 29 30 30 31 31 31 32 32 33 33
5 5 6 7 8 9 10 11 12 13 14 15 16 16 16 17 17 18 18 18 18 19 19 18 18 18 18 19 19 19 19 20 21 22 23 23 23 22 21 22 23 22 21 21 21 20 19 18 16 14 13 11 11 11 12 13 14 14 14 15 15 16 16 17 18 19 20 21 21 22 23 24 25 25 26 27 27 28 28 29 29 30 30 31 31 32
5 6 7 8 9 10 11 12 13 14 15 15 16 16 16 16 16 17 17 17 18 18 18 18 18 18 18 18 19 19 18 19 20 21 21 22 22 22 22 23 24 24 23 23 23 22 21 19 16 14 13 13 13 13 14 14 14 14 14 14 14 15 15 16 17 18 19 19 20 21 22 22 23 24 24 25 25 26 26 27 28 28 29 30 30 31
6 6 7 8 10 11 12 13 14 15 15 16 16 16 16 16 16 16 16 17 17 18 18 18 18 18 18 18 18 17 17 19 19 20 21 22 22 22 22 23 25 26 26 24 24 23 22 20 17 15 15 15 15 15 15 15 14 14 14 14 14 14 15 16 16 17 18 18 19 20 20 21 21 22 22 23 23 24 25 25 26 27 28 29 29 30
6 7 8 9 10 11 12 13 14 15 16 17 17 17 16 16 16 16 16 16 17 17 17 18 18 18 18 18 17 17 17 18 19 20 20 21 22 23 22 24 26 27 27 27 26 25 24 22 19 18 17 17 18 18 17 16 15 14 14 14 14 14 15 15 16 16 17 17 18 18 19 19 20 20 21 21 22 23 23 24 25 26 27 28 29 30
7 8 9 10 11 12 13 14 14 15 16 17 17 17 17 17 16 16 15 15 16 17 17 17 18 18 18 17 17 17 17 18 19 20 20 21 23 23 24 25 26 28 29 28 28 27 26 24 22 21 20 20 20 19 18 17 16 15 14 14 14 14 15 15 15 16 16 16 17 17 18 18 19 19 20 21 21 22 23 23 24 25 26 28 29 30
8 9 10 11 12 13 13 14 15 15 16 16 17 17 16 16 15 15 14 15 15 16 17 17 18 19 19 19 18 17 17 18 19 20 21 21 22 24 25 25 26 28 29 30 30 28 27 26 24 24 24 23 23 21 20 18 17 16 15 15 15 15 15 15 15 15 15 16 16 17 17 18 18 19 19 20 20 21 22 23 24 25 26 27 29 30
9 10 11 12 13 13 14 14 15 15 15 15 15 15 15 14 14 14 14 14 15 16 16 17 18 19 20 20 18 17 16 17 19 21 21 21 22 24 25 26 27 28 30 31 32 31 29 27 26 26 27 27 25 24 22 20 19 18 17 16 15 15 15 15 15 15 15 15 16 16 17 17 18 18 19 19 20 20 21 22 23 24 26 27 29 30
10 11 12 13 13 14 14 14 14 14 14 14 14 14 13 13 13 13 14 14 15 15 16 17 18 19 20 21 20 18 16 16 18 21 22 21 22 24 25 26 26 27 29 31 33 33 32 29 28 28 29 29 28 27 25 23 22 21 19 18 16 16 16 16 15 15 15 15 15 16 16 16 17 17 18 19 19 20 21 21 23 24 26 27 29 30
11 11 12 13 14 14 14 14 14 13 13 13 13 13 13 13 13 13 14 15 15 15 16 17 18 19 20 20 20 19 18 16 18 21 22 22 22 24 25 26 26 26 27 28 30 31 33 32 31 30 31 31 31 30 28 26 25 24 22 20 18 17 16 16 16 16 16 15 15 15 16 16 16 17 17 18 19 19 20 21 22 24 26 27 29 30
11 12 12 13 13 13 13 13 13 13 13 12 12 12 12 13 13 14 14 15 15 16 17 17 18 19 19 19 20 19 18 16 18 21 21 21 22 24 25 25 26 26 25 26 26 26 28 32 33 33 33 33 33 32 30 29 28 27 25 23 21 19 18 18 18 17 17 16 16 16 16 16 16 17 17 17 18 19 19 20 22 23 25 27 29 30
11 12 12 13 13 13 13 13 12 12 12 12 12 12 12 13 14 14 15 16 16 17 17 17 18 19 19 19 19 18 17 16 17 19 20 21 22 23 24 24 25 25 25 25 25 25 27 30 34 35 35 34 33 33 32 31 30 28 27 25 23 21 19 19 19 19 18 18 17 17 17 17 17 17 17 17 17 18 19 20 21 22 24 27 29 30
11 12 12 12 12 12 12 12 12 12 11 11 12 12 12 13 14 15 16 16 17 17 17 18 18 18 19 20 20 18 17 15 16 17 19 19 20 22 23 23 24 25 25 26 26 27 28 30 32 34 35 35 34 33 32 31 30 29 27 26 24 23 21 20 20 20 20 20 19 19 18 18 18 17 17 17 18 18 19 19 20 22 23 26 28 30
11 12 12 12 12 11 11 11 11 11 11 11 11 12 12 13 14 15 15 16 17 18 18 18 18 18 19 19 20 19 17 15 15 16 17 17 18 20 22 22 23 24 25 26 27 28 29 30 31 32 34 36 35 33 32 31 30 29 27 25 24 23 22 22 22 22 22 22 21 21 21 20 20 19 19 19 19 19 19 20 20 21 22 24 26 28
11 11 11 11 11 10 10 10 10 10 10 10 11 11 12 13 13 14 15 16 17 17 18 18 19 19 19 19 19 19 18 16 15 14 14 15 17 19 20 21 22 22 24 25 27 28 30 31 32 32 32 33 34 34 33 31 30 29 27 25 24 23 23 23 23 24 24 24 24 24 23 23 22 22 21 21 21 20 20 20 21 21 22 23 24 26
10 10 10 10 10 9 9 9 8 9 9 10 10 11 12 12 13 14 15 15 16 17 17 18 18 18 19 19 19 19 18 16 14 13 13 14 15 17 18 20 21 21 22 24 26 27 29 32 33 33 32 31 32 33 34 33 31 30 28 27 25 24 24 24 24 24 25 25 25 26 25 25 25 25 24 24 24 23 23 23 23 23 24 24 24 25
9 10 10 9 8 8 7 7 7 7 8 9 10 11 11 12 13 14 14 15 16 16 17 17 17 18 18 18 18 18 18 16 14 12 12 12 14 16 17 19 20 20 21 23 24 26 28 31 33 34 34 33 32 32 33 33 33 31 30 27 26 25 25 25 24 25 25 26 27 27 27 28 28 28 28 28 28 28 29 28 28 28 28 28 27 27
9 9 9 8 7 7 6 6 6 7 8 9 10 10 11 12 12 13 14 14 15 16 17 17 17 17 17 17 17 16 15 14 12 11 11 12 13 15 17 18 20 20 21 22 24 25 27 29 30 32 33 34 34 34 33 32 32 31 30 29 28 26 25 25 25 26 26 27 28 29 30 30 30 31 31 32 32 33 33 33 33 32 32 32 32 31
8 8 8 7 7 6 6 6 7 7 8 9 9 10 10 11 12 12 13 13 14 15 16 16 16 16 16 15 15 14 13 12 11 10 10 11 12 14 16 17 19 21 22 23 24 25 27 28 29 30 31 33 34 34 34 32 30 29 29 30 30 29 27 27 27 27 28 29 30 31 31 32 32 32 33 33 34 34 35 35 35 35 34 34 34 35
7 7 7 6 6 6 6 6 7 7 8 9 9 10 10 10 11 11 11 12 12 13 14 15 15 14 14 13 12 11 11 10 9 9 10 11 12 13 15 17 19 20 22 24 25 25 26 28 29 30 31 31 32 32 32 31 29 28 28 29 31 31 30 29 28 28 29 30 31 31 32 32 33 33 34 34 35 35 35 35 35 35 35 34 34 34
6 6 6 5 5 5 5 6 6 7 8 8 9 9 10 10 10 10 10 10 10 11 12 13 14 13 11 9 8 8 8 8 8 8 9 10 11 13 14 16 18 20 22 24 25 26 27 27 28 29 30 30 30 31 31 30 28 27 27 28 30 32 32 30 29 29 30 31 32 32 32 33 33 34 34 35 35 35 35 35 35 34 34 34 34 34
6 5 5 5 4 4 5 5 6 6 7 7 8 9 10 10 10 10 11 11 11 12 12 13 14 14 12 9 7 7 6 6 7 8 9 10 11 13 15 16 18 20 22 24 26 27 27 27 27 28 28 28 28 29 30 29 28 27 27 27 29 31 32 32 32 31 32 32 32 32 32 33 33 34 35 35 36 36 36 35 35 34 33 34 34 34
5 5 4 4 4 4 4 4 4 5 5 6 7 8 9 10 10 11 11 12 13 14 15 15 15 15 15 13 12 11 10 9 8 8 9 11 12 14 15 17 18 20 21 23 25 27 28 28 27 27 26 25 26 26 27 27 28 28 27 28 28 29 30 32 33 34 34 34 33 33 33 33 34 35 36 36 36 36 36 36 35 35 34 34 34 35
5 4 4 3 3 3 3 3 3 3 4 5 6 8 9 10 11 11 12 13 14 14 15 16 17 17 17 17 17 17 15 14 13 12 11 12 13 15 16 18 19 20 21 23 24 25 27 27 27 26 24 24 24 24 25 26 27 28 29 29 29 30 31 32 33 34 34 35 35 34 33 34 35 36 37 37 37 37 36 36 36 36 35 35 34 34
5 4 3 3 3 3 4 3 3 2 3 4 6 8 9 10 11 12 13 13 14 15 16 17 18 19 20 20 20 20 20 19 17 16 15 15 15 16 17 18 19 21 22 23 24 25 25 25 25 25 24 24 23 23 23 24 26 28 29 30 30 31 32 33 33 34 34 34 35 35 35 35 35 36 36 37 37 37 37 36 36 36 36 35 34 34
5 4 4 4 4 4 5 5 4 3 3 4 6 8 9 10 11 12 13 14 15 16 17 18 19 20 21 22 22 23 23 22 21 20 19 19 19 19 19 19 20 21 22 24 24 25 24 24 23 22 22 22 23 23 23 23 25 27 29 30 31 32 33 34 34 34 34 34 34 35 35 36 36 36 37 37 37 38 37 37 36 36 35 35 34 34
6 5 5 5 5 6 6 6 6 5 4 4 5 7 9 10 11 13 14 15 16 17 18 19 20 21 22 23 24 24 24 24 23 23 22 22 22 22 21 22 22 22 23 24 25 25 24 23 21 20 19 19 21 22 24 25 25 27 28 29 31 32 34 35 35 35 34 34 35 35 35 35 35 36 37 38 38 38 38 38 37 36 35 35 34 34
6 6 6 6 6 6 7 7 7 6 6 5 6 7 8 10 12 13 15 16 17 19 20 21 22 23 24 24 25 25 26 25 24 24 24 23 24 24 24 25 25 25 25 25 25 25 25 23 21 18 17 17 18 21 24 26 27 27 28 29 30 32 34 35 36 35 35 35 35 35 35 35 35 35 35 36 38 38 39 38 38 37 36 35 34 34
7 6 6 6 7 7 8 8 8 7 7 7 7 8 9 10 12 14 15 17 18 20 21 22 23 24 24 25 26 27 27 27 26 25 24 24 24 25 26 27 28 29 29 29 28 28 27 26 23 20 17 16 17 19 22 25 27 28 29 29 31 32 34 35 35 35 35 35 36 35 35 35 35 35 34 35 37 38 39 39 38 37 36 35 35 34
8 7 7 7 7 8 8 8 8 8 8 9 9 10 10 12 13 14 16 17 19 20 21 23 24 24 25 26 27 28 28 28 27 26 25 24 24 25 26 27 29 30 32 32 32 32 31 30 28 25 20 17 17 19 21 24 26 28 29 31 32 33 34 35 35 35 35 35 35 35 35 35 35 34 34 34 36 37 39 39 38 38 37 36 35 35
Wind_Direction
240 238 237 237 237 239 243 248 251 254 256 257 259 261 263 266 269 273 275 278 280 281 283 285 286 289 291 293 295 297 298 299 300 300 300 300 300 300 300 300 299 299 299 299 299 300 300 300 300 300 300 300 300 301 301 300 300 300 299 299 298 298 298 298 297 297 297 296 296 296 296 297 297 298 298 299 299 298 297 297 297 297 297 297 298 299
235 235 235 237 239 242 247 252 255 257 257 258 260 262 265 268 272 274 277 278 280 282 283 285 287 290 292 294 296 297 299 299 299 299 299 299 299 299 298 298 298 298 298 298 298 299 299 299 299 299 300 300 300 300 300 300 299 299 298 298 298 298 298 298 298 297 297 298 298 298 298 298 298 298 298 297 297 296 295 295 295 296 296 296 297 298
235 235 237 241 244 247 250 255 258 259 259 260 262 265 268 271 274 276 278 279 281 283 284 287 289 291 293 294 296 297 298 298 298 298 298 298 298 297 297 297 297 297 297 297 298 298 298 299 299 299 299 299 299 299 299 299 299 298 298 298 298 298 298 298 298 299 298 298 298 298 298 297 297 296 296 295 295 294 294 295 295 295 295 296 296 297
240 239 242 247 250 253 255 257 260 262 263 264 266 269 271 274 276 277 279 281 283 285 286 288 290 291 293 295 296 296 296 296 297 297 297 296 296 296 296 296 296 296 296 297 297 298 298 299 299 299 299 299 299 299 299 299 298 298 298 298 298 298 298 299 299 298 298 298 297 297 296 295 295 295 294 294 294 294 294 294 295 295 296 296 296 296
246 246 248 252 254 257 259 260 261 263 265 266 268 271 273 275 276 278 280 281 284 286 288 289 291 292 294 295 296 295 295 295 295 295 295 295 295 294 295 295 295 296 296 297 297 298 298 298 298 298 298 299 299 299 299 298 298 298 298 298 298 298 298 298 298 297 297 296 295 295 294 294 294 294 294 294 294 294 295 295 295 296 296 296 297 296
254 254 255 255 256 257 260 260 261 261 263 266 268 271 273 275 277 278 281 283 285 287 289 291 293 294 295 295 294 293 293 293 293 293 293 294 294 294 294 295 296 296 297 297 297 298 298 298 298 298 298 298 298 298 298 298 298 298 297 298 298 297 297 297 296 295 295 294 294 294 294 293 293 294 294 294 295 295 295 296 296 296 297 297 297 296
262 261 261 260 259 259 259 259 261 262 264 267 270 272 274 276 278 280 283 285 287 289 290 292 294 294 294 293 292 292 292 292 293 293 293 293 294 294 295 295 295 296 296 297 297 297 297 297 297 297 297 297 297 297 297 297 297 297 297 296 296 296 295 295 294 294 293 293 293 293 293 293 294 294 295 295 295 295 295 295 296 296 296 296 296 296
268 267 265 262 260 260 259 260 262 264 267 269 272 275 277 279 281 283 285 287 289 290 291 292 292 292 292 291 291 292 292 292 293 293 293 293 294 294 294 294 295 295 296 296 296 296 296 296 296 296 296 296 296 296 296 296 295 295 295 295 294 294 293 293 293 292 292 292 292 293 293 294 294 294 295 294 294 294 295 294 295 295 295 295 295 295
275 271 268 265 263 261 262 263 265 267 270 271 273 275 278 280 283 285 287 288 289 290 291 290 290 290 289 290 290 292 292 292 292 292 293 293 293 293 293 293 294 294 295 295 295 295 295 295 295 295 295 295 295 295 295 294 294 294 294 293 293 293 292 292 292 292 292 292 292 293 293 294 294 294 294 293 293 293 293 293 293 294 294 294 294 294
280 276 272 270 268 267 266 266 268 271 273 274 275 277 279 281 283 285 286 287 288 288 288 288 288 289 289 289 289 290 291 292 292 292 293 293 294 294 294 294 294 295 295 295 296 295 295 295 295 295 295 295 295 294 294 294 294 293 293 292 292 292 292 292 292 292 292 292 293 293 293 293 293 292 292 292 291 291 291 291 292 292 292 292 292 292
277 275 273 270 270 271 271 271 272 274 276 277 278 280 282 284 286 287 287 286 285 285 286 287 289 291 292 291 290 289 289 290 291 292 293 294 294 294 294 294 295 296 296 296 296 296 295 295 294 294 294 294 294 294 294 293 293 293 292 292 292 292 291 291 292 292 292 292 292 292 292 291 291 290 290 289 289 289 289 289 290 290 290 290 290 291
269 268 268 268 269 270 271 272 274 275 277 279 281 284 286 287 288 288 288 288 288 288 288 290 292 294 296 295 294 293 291 290 290 291 292 293 293 293 293 293 294 295 296 296 296 295 295 294 293 293 293 293 293 293 292 292 292 292 292 291 291 291 291 291 291 291 291 291 290 290 289 289 288 288 287 287 287 287 287 287 287 288 288 288 289 289
263 263 265 266 268 270 272 273 275 278 280 282 285 287 288 289 289 290 291 293 294 296 297 297 297 299 299 298 297 296 294 292 291 291 292 293 293 294 293 293 293 295 296 296 295 294 293 293 292 292 292 292 291 291 290 290 290 290 290 290 289 289 289 289 289 289 289 288 287 287 286 286 286 286 285 285 285 285 285 285 285 286 287 287 288 289
262 263 265 267 269 271 274 276 279 281 284 286 287 287 288 290 292 294 296 298 300 302 303 302 302 303 302 300 297 296 295 294 293 292 293 295 297 298 297 296 296 297 298 298 296 294 293 292 291 290 290 289 289 288 288 288 288 288 287 287 287 287 287 287 287 286 285 285 285 284 284 284 284 284 284 284 284 284 284 285 285 286 287 288 288 289
263 265 267 270 272 274 276 279 281 283 285 286 287 289 291 294 297 299 301 301 303 304 303 302 301 302 302 301 299 297 297 297 297 297 297 299 303 304 302 300 300 301 302 300 298 296 294 293 292 291 290 288 287 286 286 286 286 286 286 286 285 285 285 284 284 284 283 283 283 283 283 283 283 283 283 283 284 284 285 286 286 287 288 289 290 290
266 268 270 272 275 277 278 280 281 284 286 288 290 293 296 299 301 303 303 303 304 305 305 303 302 301 301 302 302 302 302 303 303 303 303 305 308 310 306 303 303 304 305 303 300 298 296 295 293 292 291 289 288 287 286 286 286 286 286 285 285 284 284 283 283 283 283 283 283 283 284 284 284 284 284 285 285 286 286 287 288 288 289 289 290 290
270 271 272 273 275 276 277 278 280 284 289 293 295 297 300 302 304 305 305 304 305 306 306 306 306 306 306 308 309 308 308 307 307 307 309 310 313 314 310 306 306 308 310 307 304 301 301 300 298 296 293 291 290 289 289 288 288 287 287 286 286 285 285 284 284 284 284 284 284 284 285 285 285 285 285 286 286 287 287 288 288 289 289 289 289 289
272 271 271 272 274 275 278 281 285 288 293 296 299 301 302 303 304 305 305 305 306 307 307 309 309 310 312 316 317 316 313 309 308 310 312 314 317 318 314 310 309 312 315 314 311 309 307 307 305 302 298 296 295 294 292 291 291 290 289 288 288 287 287 286 286 286 286 286 286 286 285 285 285 286 286 286 286 287 287 287 287 288 288 288 288 288
271 270 271 275 278 280 283 287 291 294 297 299 301 303 303 304 304 305 305 306 307 308 310 312 313 315 315 317 319 319 316 311 310 311 315 317 320 322 319 315 314 317 321 322 320 318 316 316 312 308 305 303 301 300 298 296 295 293 292 291 290 289 288 288 287 287 287 286 286 286 285 285 285 285 285 285 286 286 286 286 286 287 287 287 287 288
275 274 274 280 285 288 290 293 296 299 300 302 303 303 304 305 305 305 306 308 310 311 313 314 317 318 317 316 318 319 317 313 312 313 316 319 323 326 324 320 320 323 326 328 327 326 325 324 320 316 312 310 309 307 305 303 301 299 296 294 292 290 289 289 288 287 286 286 285 285 285 285 285 285 285 285 285 286 286 286 286 286 286 287 287 287
283 282 283 287 289 291 294 298 300 302 302 303 304 305 306 307 307 308 310 312 313 313 315 316 318 319 318 317 319 321 320 317 316 316 318 321 325 328 327 324 324 326 329 332 332 332 333 331 329 325 322 321 319 318 315 312 308 303 299 296 293 292 290 289 288 287 287 286 286 286 286 286 286 286 286 286 286 286 286 286 286 286 286 287 287 287
284 285 287 291 292 294 299 302 303 303 304 305 305 307 309 310 311 312 314 314 314 315 316 317 318 318 317 318 320 323 323 320 318 318 320 322 326 330 330 326 326 328 331 334 336 337 339 338 336 333 333 332 331 328 324 318 313 308 303 299 297 295 293 292 291 290 289 289 289 289 289 289 289 289 289 288 288 288 288 288 288 288 288 288 288 288
285 288 292 294 297 299 302 304 305 305 306 306 307 310 312 313 314 314 316 315 314 314 315 315 316 316 318 319 322 324 324 322 320 320 322 322 326 330 331 328 327 330 333 336 338 339 342 343 342 341 341 342 340 336 330 324 319 314 310 306 304 301 299 298 296 295 294 294 293 293 292 292 292 291 291 290 290 290 290 290 290 290 291 291 290 290
290 293 296 298 300 302 304 306 307 308 308 309 309 311 314 316 316 315 315 315 313 313 314 315 316 318 319 321 323 325 325 322 321 322 322 322 325 329 332 330 330 331 335 337 339 340 343 346 347 347 346 346 345 341 336 331 327 323 319 316 313 310 307 305 302 300 299 298 297 296 295 295 295 294 294 294 294 294 294 294 295 295 295 295 295 294
291 295 298 300 303 305 307 309 310 311 312 312 312 314 316 317 316 315 315 314 314 314 315 317 318 319 320 320 324 327 326 323 322 323 323 324 326 329 333 333 332 333 335 337 339 340 342 346 349 349 349 348 347 344 341 338 334 331 328 324 321 318 314 311 308 306 304 302 301 300 300 299 299 299 299 299 299 299 299 299 299 299 299 298 297 296
292 297 300 304 307 309 311 313 314 315 315 314 314 315 317 318 317 317 317 316 315 315 316 317 317 317 318 320 326 330 329 325 323 324 325 327 328 330 334 334 334 334 335 336 338 340 342 345 348 349 348 348 348 347 345 343 340 336 333 330 327 323 320 316 313 310 308 307 306 305 305 304 304 304 304 303 303 303 303 303 302 301 300 299 298 297
297 301 305 309 311 313 314 315 316 315 315 313 313 315 316 317 317 317 317 315 314 314 315 316 316 316 318 321 328 332 331 327 324 325 328 330 330 331 334 335 335 335 336 336 338 340 342 344 346 346 346 347 348 349 348 345 343 340 337 334 331 327 324 320 317 314 313 311 310 310 309 309 308 308 307 307 306 306 306 305 304 302 301 299 298 297
304 308 311 313 314 315 314 314 313 313 312 310 310 311 313 315 315 315 315 314 313 314 315 316 316 317 319 323 329 334 334 329 326 327 330 331 330 330 333 336 337 338 338 337 337 338 341 343 343 343 344 345 347 348 349 347 345 343 340 338 335 331 328 324 321 319 318 316 315 314 313 312 311 310 310 309 309 308 307 306 305 303 301 300 299 298
310 312 314 314 313 313 311 311 310 308 307 306 306 307 309 311 312 313 313 313 314 314 315 316 317 318 320 323 328 334 338 334 329 328 331 332 330 330 333 337 339 340 340 338 337 337 339 341 341 341 340 342 344 347 349 349 347 345 344 341 339 336 332 329 326 324 322 321 320 318 316 315 314 313 312 311 310 310 308 307 306 304 303 301 302 302
310 311 311 310 309 308 307 306 306 305 304 303 304 305 307 309 310 312 313 314 315 315 316 316 318 319 321 323 327 334 341 339 331 327 330 331 330 331 334 338 340 342 342 340 338 336 336 338 339 338 337 339 342 346 349 349 349 348 346 345 343 340 337 333 331 328 327 325 323 321 319 317 316 315 313 312 311 310 309 308 307 306 305 305 306 307
306 305 305 305 304 304 304 304 304 303 303 303 304 306 308 310 312 313 314 315 315 316 316 317 319 320 322 325 328 334 342 340 331 326 330 332 331 331 335 338 341 342 342 341 338 333 331 333 334 335 335 337 340 344 347 349 349 349 348 347 346 344 342 338 334 332 330 329 327 325 323 321 319 316 315 313 311 310 309 309 309 309 309 311 312 313
300 300 301 302 303 303 303 304 304 304 305 305 307 309 312 314 316 317 317 317 317 317 317 318 319 321 323 324 327 332 339 338 331 327 330 331 331 331 334 337 339 341 340 340 336 330 325 326 329 333 334 336 339 342 345 347 348 348 348 347 346 346 345 341 338 336 335 333 332 330 327 325 322 319 316 314 312 310 310 310 311 313 314 316 317 317
297 299 301 302 303 304 305 306 307 308 309 310 311 314 316 318 319 320 320 320 319 319 319 319 320 321 322 323 325 329 336 337 332 328 330 330 329 330 332 335 338 339 339 339 336 331 325 324 327 331 333 335 336 339 342 344 346 346 347 346 345 345 346 344 342 340 339 338 336 334 331 328 325 323 320 318 315 313 312 313 314 316 318 319 319 318
299 300 302 303 304 306 307 309 311 312 313 314 315 316 319 321 322 322 322 322 322 321 320 320 320 321 321 322 323 327 334 336 332 328 328 328 327 328 330 333 336 338 339 338 336 333 329 328 327 328 330 332 334 336 339 341 343 344 345 345 344 344 346 346 345 343 342 341 339 337 335 333 330 328 326 323 321 318 317 316 317 318 320 320 320 320
301 303 304 305 307 309 311 313 314 315 316 316 317 319 321 322 323 323 323 322 322 321 321 320 320 320 320 320 322 325 331 333 330 326 326 325 325 326 328 332 335 337 338 336 335 332 329 328 327 327 326 329 331 334 337 338 340 341 344 344 344 345 347 347 346 344 343 341 340 339 338 337 335 334 332 329 327 324 322 320 319 319 320 320 321 321
305 307 309 310 311 313 315 316 317 317 319 320 320 322 323 324 324 323 322 320 319 319 318 318 319 319 319 319 320 322 326 328 327 324 323 323 324 325 327 330 333 336 337 336 334 331 328 327 327 327 326 325 327 331 335 337 338 339 341 344 345 347 348 349 347 344 342 341 341 340 340 339 338 337 335 333 331 328 326 324 323 322 322 321 321 321
310 312 313 314 316 317 316 316 318 320 322 323 323 323 324 324 323 321 320 318 317 316 316 315 316 316 317 317 318 319 321 323 323 322 321 321 323 325 326 328 332 336 337 335 334 332 329 327 327 327 325 323 323 326 331 335 338 339 341 343 344 346 347 348 347 345 342 341 340 340 340 340 339 338 337 335 334 332 331 330 329 328 326 324 323 322
314 315 316 316 317 317 317 317 319 322 324 325 325 324 323 322 321 320 318 317 315 314 313 313 313 313 313 314 314 315 316 317 317 317 318 320 322 324 326 328 331 335 337 336 334 332 329 326 324 323 324 324 324 325 328 331 334 336 340 342 343 343 344 346 346 345 343 341 340 340 340 340 339 338 337 337 336 335 334 333 332 331 330 327 326 324
317 316 316 316 318 318 318 319 321 323 324 324 324 324 324 324 323 322 320 318 316 314 313 313 312 312 312 311 310 309 309 309 309 310 314 317 320 323 326 328 331 335 337 338 336 333 328 325 322 320 320 322 324 327 329 331 331 333 336 339 341 343 344 345 346 345 343 341 340 340 339 340 339 338 337 336 336 335 333 332 332 331 330 329 328 326
314 313 312 314 317 318 319 320 322 324 325 326 327 328 329 330 329 327 324 321 318 316 315 315 315 314 313 310 307 304 302 301 302 305 310 315 320 324 328 331 334 336 337 337 336 332 328 325 323 321 321 321 321 324 327 329 331 332 333 333 335 339 344 346 346 345 343 341 340 339 338 338 338 337 335 335 333 332 331 330 330 330 330 329 328 327
308 308 309 313 316 318 320 323 324 326 328 330 332 335 337 338 336 332 328 323 318 316 316 316 317 316 314 309 305 302 299 298 300 304 310 316 322 327 331 334 336 337 338 337 334 331 329 326 324 323 323 323 322 321 323 326 330 332 332 330 331 335 340 343 344 343 342 340 339 338 337 336 335 334 333 332 331 331 330 329 328 329 330 329 328 326
300 302 305 310 316 320 322 324 326 329 333 337 341 344 344 344 344 343 340 335 328 323 322 322 323 322 318 312 308 305 304 303 305 310 315 321 326 332 336 338 339 339 338 336 333 331 330 328 325 323 323 323 321 320 322 327 332 334 332 331 332 335 338 341 343 343 340 339 338 338 336 334 333 332 331 330 329 330 330 329 329 328 328 328 328 325
293 296 301 307 312 316 319 323 327 332 339 344 347 346 345 345 346 348 351 350 347 343 340 339 338 337 334 330 329 330 330 326 325 325 326 330 334 338 341 343 343 342 340 336 332 330 330 329 326 324 324 324 322 320 320 326 331 334 334 335 334 332 331 336 341 342 340 338 337 336 334 333 331 330 329 328 328 329 330 330 330 329 329 328 327 326
287 291 296 300 305 309 314 319 327 335 343 348 347 344 341 342 342 345 348 350 350 349 347 345 344 344 343 343 345 349 350 350 347 343 341 341 342 344 346 346 346 344 341 337 333 330 330 329 328 328 329 327 323 321 322 326 330 332 334 337 335 331 327 331 337 339 338 337 336 335 334 333 331 329 329 329 329 330 330 330 330 331 330 330 329 327
280 283 289 291 295 297 297 300 309 324 337 343 341 337 336 336 337 340 342 345 346 346 346 346 347 348 350 350 350 351 352 353 353 352 350 349 349 350 350 349 347 345 342 338 335 332 330 329 330 332 333 331 326 323 324 327 330 333 336 337 336 333 331 333 335 335 334 334 335 334 334 334 332 330 329 330 330 330 330 329 329 330 331 330 329 327
274 276 279 280 279 278 274 270 271 287 317 331 331 328 327 328 331 334 336 339 341 342 343 344 348 352 354 353 352 352 352 352 352 352 352 352 352 352 351 350 348 346 342 339 337 335 333 331 332 333 334 332 329 328 330 331 332 333 335 336 335 334 333 334 335 335 334 333 333 334 335 335 333 331 328 328 328 328 328 328 328 328 329 329 328 326
272 273 273 270 266 262 259 255 255 262 284 311 319 320 320 322 326 330 333 335 337 338 340 343 348 352 354 354 353 353 352 352 352 352 351 353 353 352 351 350 348 346 344 341 339 337 335 335 336 336 333 330 328 330 335 337 336 334 334 334 334 332 331 332 334 336 335 333 333 334 335 335 333 330 328 327 326 325 326 327 327 328 328 327 326 325
273 273 270 263 257 253 252 252 254 259 271 290 305 313 316 320 324 329 332 334 335 336 338 342 346 350 352 352 353 353 353 352 351 351 351 353 354 352 350 349 348 347 345 343 340 338 337 337 338 339 336 331 329 330 335 338 337 335 334 333 332 331 331 332 334 336 336 334 334 335 336 334 332 329 328 326 324 323 323 325 326 327 327 327 326 324
271 271 266 259 252 248 248 252 257 263 272 283 295 307 316 320 325 330 332 333 334 336 338 341 344 347 349 350 351 352 352 351 351 350 351 352 354 354 353 351 348 346 344 343 341 340 340 340 341 342 341 337 333 332 334 336 337 336 334 333 332 331 331 332 334 336 336 335 335 335 335 334 332 330 327 324 321 320 320 321 323 325 326 327 326 323
273 270 264 258 251 248 249 253 261 270 279 287 297 307 315 321 325 329 330 332 333 335 338 340 342 344 346 348 349 349 350 350 350 350 350 352 354 356 355 352 350 347 344 343 343 343 342 341 342 345 346 343 338 335 333 334 335 335 335 334 334 333 332 332 333 335 336 335 335 335 335 334 333 331 327 323 320 318 318 319 320 322 325 326 326 324
278 275 268 261 256 254 253 258 267 277 286 294 301 308 315 321 324 327 328 330 332 334 335 337 339 342 344 345 346 347 347 347 348 349 349 351 354 354 353 351 349 347 345 344 343 343 343 341 340 342 346 347 342 335 333 332 334 335 334 335 335 335 333 332 333 335 336 335 334 334 333 333 332 330 326 322 319 318 317 318 319 321 324 325 325 324